Location: Bauerbach
(50.4985°N, 10.3912°E)
Time: 21:59:02
(UTC+00:00)

Cosmos 614 Rocket - Pass Details

Date: 13 January 2026
Orbit: 728 x 758 km, 74.1° (Epoch: 18 February)

Event Time Altitude Azimuth Distance (km) Brightness Sun altitude
Exits shadow 04:47:44 58° 265° (W) 851 3.8 -22.6°
Maximum altitude 04:48:16 62° 297° (WNW) 820 3.8 -22.5°
Drops below altitude 10° 04:53:17 10° 19° (NNE) 2,236 6.5 -21.7°
Sets 04:55:40 0° 23° (NNE) 3,162 7.4 -21.3°
